FW3936 Weather Reports


Display with metric or nautical units.
time (UTC)temp
F
wind
direction
speed
MPH
gust
MPH
rain 1hr
in
rain 24hr
in
rain mn
in
humidity
%
barometer
mb
20260903205009 100 153 0.0 7.0 0.00 0.00 0.00 34 1011.7
20260903204508 100 153 3.0 7.0 0.00 0.00 0.00 35 1011.8
20260903204007 99 101 1.0 5.0 0.00 0.00 0.00 36 1011.9
20260903203506 99 101 0.0 7.0 0.00 0.00 0.00 34 1011.9
20260903203006 100 94 1.0 7.0 0.00 0.00 0.00 34 1012.1
20260903202504 100 92 1.0 8.0 0.00 0.00 0.00 35 1012.1
20260903202003 100 131 1.0 7.0 0.00 0.00 0.00 35 1012.1
20260903201503 100 135 2.0 7.0 0.00 0.00 0.00 36 1012.3
20260903201003 99 134 0.0 5.0 0.00 0.00 0.00 37 1012.2
20260903200502 99 132 1.0 6.0 0.00 0.00 0.00 36 1012.3
20260903200001 100 99 2.0 7.0 0.00 0.00 0.00 34 1012.3
20260903195559 99 97 3.0 7.0 0.00 0.00 0.00 38 1012.3
20260903195059 99 115 1.0 5.0 0.00 0.00 0.00 37 1012.3
20260903194558 99 116 1.0 5.0 0.00 0.00 0.00 38 1012.4
20260903194058 99 121 2.0 7.0 0.00 0.00 0.00 39 1012.5
20260903193556 98 118 1.0 7.0 0.00 0.00 0.00 41 1012.5
20260903193105 98 115 1.0 9.0 0.00 0.00 0.00 40 1012.7
20260903192555 98 104 3.0 10.0 0.00 0.00 0.00 40 1012.7
20260903192055 99 131 2.0 10.0 0.00 0.00 0.00 40 1012.8
20260903191553 99 122 1.0 8.0 0.00 0.00 0.00 39 1012.8
20260903191052 98 130 1.0 8.0 0.00 0.00 0.00 40 1012.9
20260903190555 98 144 1.0 8.0 0.00 0.00 0.00 40 1013.0
20260903190051 98 111 2.0 7.0 0.00 0.00 0.00 42 1013.1
20260903185549 97 108 1.0 7.0 0.00 0.00 0.00 42 1013.2
20260903185049 97 107 0.0 8.0 0.00 0.00 0.00 42 1013.3
20260903184555 97 100 3.0 8.0 0.00 0.00 0.00 43 1013.5
20260903184048 96 140 0.0 6.0 0.00 0.00 0.00 42 1013.6
20260903183544 96 140 1.0 8.0 0.00 0.00 0.00 41 1013.7
20260903183044 96 132 3.0 7.0 0.00 0.00 0.00 41 1013.7
20260903182544 97 123 0.0 5.0 0.00 0.00 0.00 43 1013.8
20260903182042 96 123 1.0 5.0 0.00 0.00 0.00 44 1013.9
20260903181544 96 135 0.0 8.0 0.00 0.00 0.00 45 1013.9
20260903181041 95 122 1.0 4.0 0.00 0.00 0.00 46 1014.0
20260903180538 94 122 0.0 8.0 0.00 0.00 0.00 45 1014.0
20260903180039 94 121 2.0 8.0 0.00 0.00 0.00 46 1014.1
20260903175536 94 137 3.0 6.0 0.00 0.00 0.00 45 1014.1
20260903175035 93 133 2.0 6.0 0.00 0.00 0.00 50 1014.1
20260903174537 93 132 1.0 6.0 0.00 0.00 0.00 49 1014.2
20260903174033 94 142 1.0 5.0 0.00 0.00 0.00 50 1014.3
20260903173534 93 145 0.0 5.0 0.00 0.00 0.00 50 1014.4
20260903173036 93 145 1.0 10.0 0.00 0.00 0.00 48 1014.4
20260903172528 92 144 1.0 10.0 0.00 0.00 0.00 51 1014.5
20260903172028 91 150 0.0 4.0 0.00 0.00 0.00 53 1014.6
20260903171526 91 150 1.0 4.0 0.00 0.00 0.00 54 1014.7
20260903171028 91 150 0.0 5.0 0.00 0.00 0.00 54 1014.7
20260903170524 90 151 1.0 6.0 0.00 0.00 0.00 58 1014.8
20260903170030 89 159 1.0 6.0 0.00 0.00 0.00 58 1014.9
20260903165522 89 159 1.0 5.0 0.00 0.00 0.00 58 1014.9
20260903165025 89 160 1.0 5.0 0.00 0.00 0.00 58 1014.9
20260903164521 89 160 1.0 5.0 0.00 0.00 0.00 59 1014.9
20260903164021 89 162 1.0 4.0 0.00 0.00 0.00 58 1015.0
20260903163522 90 163 2.0 5.0 0.00 0.00 0.00 56 1015.1
20260903163020 90 148 2.0 8.0 0.00 0.00 0.00 57 1015.0
20260903162517 90 148 2.0 8.0 0.00 0.00 0.00 56 1015.1
20260903162016 90 136 1.0 4.0 0.00 0.00 0.00 58 1015.0
20260903161515 89 136 1.0 6.0 0.00 0.00 0.00 58 1015.0
20260903161014 89 136 2.0 6.0 0.00 0.00 0.00 59 1015.0
20260903160512 88 138 1.0 8.0 0.00 0.00 0.00 60 1015.0
20260903160011 88 138 2.0 8.0 0.00 0.00 0.00 61 1015.0
20260903155509 87 138 0.0 8.0 0.00 0.00 0.00 61 1015.0
20260903155009 87 137 2.0 8.0 0.00 0.00 0.00 62 1015.0
20260903154508 87 276 1.0 5.0 0.00 0.00 0.00 63 1014.9
20260903154005 86 159 1.0 6.0 0.00 0.00 0.00 62 1015.0
20260903153504 86 169 1.0 6.0 0.00 0.00 0.00 63 1015.0
20260903153003 86 177 1.0 4.0 0.00 0.00 0.00 64 1015.0
20260903152502 85 178 1.0 4.0 0.00 0.00 0.00 65 1015.0
20260903152103 85 181 0.0 4.0 0.00 0.00 0.00 66 1015.0
20260903151559 84 182 1.0 4.0 0.00 0.00 0.00 67 1015.0
20260903151100 84 182 2.0 4.0 0.00 0.00 0.00 68 1015.0
20260903150557 83 185 1.0 4.0 0.00 0.00 0.00 67 1014.9
20260903150056 83 186 1.0 4.0 0.00 0.00 0.00 68 1015.0
20260903145554 83 193 1.0 4.0 0.00 0.00 0.00 68 1015.0
20260903145053 82 242 0.0 3.0 0.00 0.00 0.00 69 1015.0
20260903144555 82 244 1.0 4.0 0.00 0.00 0.00 69 1015.0
20260903144054 82 244 1.0 4.0 0.00 0.00 0.00 69 1015.0
20260903143551 82 165 1.0 3.0 0.00 0.00 0.00 69 1015.0
20260903143057 82 165 1.0 4.0 0.00 0.00 0.00 69 1015.0
20260903142554 81 126 0.0 5.0 0.00 0.00 0.00 71 1015.1
20260903142048 81 126 1.0 4.0 0.00 0.00 0.00 71 1015.1
20260903141551 80 126 1.0 9.0 0.00 0.00 0.00 71 1015.0
20260903141049 80 126 2.0 9.0 0.00 0.00 0.00 71 1015.1
20260903140547 80 136 1.0 6.0 0.00 0.00 0.00 71 1015.1
20260903140047 79 134 1.0 6.0 0.00 0.00 0.00 72 1015.2
20260903135545 79 134 0.0 4.0 0.00 0.00 0.00 72 1015.2
20260903135045 79 134 1.0 3.0 0.00 0.00 0.00 72 1015.2
20260903134551 79 134 0.0 3.0 0.00 0.00 0.00 72 1015.2
20260903134043 78 134 1.0 4.0 0.00 0.00 0.00 72 1015.3
20260903133542 78 134 1.0 4.0 0.00 0.00 0.00 72 1015.2
20260903133043 78 134 0.0 5.0 0.00 0.00 0.00 72 1015.3
20260903132542 78 134 1.0 5.0 0.00 0.00 0.00 72 1015.3
20260903132041 78 134 0.0 4.0 0.00 0.00 0.00 72 1015.2
20260903131540 78 134 0.0 8.0 0.00 0.00 0.00 72 1015.3
20260903131141 78 134 1.0 8.0 0.00 0.00 0.00 72 1015.2
20260903130538 78 136 1.0 6.0 0.00 0.00 0.00 72 1015.2
20260903130045 78 136 1.0 3.0 0.00 0.00 0.00 72 1015.2
20260903125541 78 136 0.0 4.0 0.00 0.00 0.00 72 1015.0
20260903125036 78 136 1.0 4.0 0.00 0.00 0.00 72 1015.1
20260903124552 78 136 0.0 8.0 0.00 0.00 0.00 72 1015.1
20260903124036 78 136 1.0 8.0 0.00 0.00 0.00 72 1015.0
20260903123534 78 138 0.0 3.0 0.00 0.00 0.00 72 1015.0
20260903123035 78 138 1.0 3.0 0.00 0.00 0.00 72 1014.9
20260903122532 78 138 0.0 6.0 0.00 0.00 0.00 72 1014.9
20260903122032 78 138 2.0 6.0 0.00 0.00 0.00 72 1014.8
20260903121537 78 138 1.0 4.0 0.00 0.00 0.00 72 1014.8
20260903121031 78 138 1.0 4.0 0.00 0.00 0.00 72 1014.7
20260903120531 78 138 0.0 5.0 0.00 0.00 0.00 72 1014.7
20260903120031 78 140 1.0 3.0 0.00 0.00 0.00 72 1014.7
20260903115530 78 140 0.0 5.0 0.00 0.00 0.00 72 1014.7
20260903115029 78 140 1.0 5.0 0.00 0.00 0.00 72 1014.7
20260903114530 78 138 0.0 6.0 0.00 0.00 0.00 72 1014.7
20260903114028 78 142 0.0 3.0 0.00 0.00 0.00 72 1014.6
20260903113528 78 142 1.0 3.0 0.00 0.00 0.00 72 1014.6
20260903113028 78 142 1.0 6.0 0.00 0.00 0.00 72 1014.5
20260903112527 78 142 2.0 7.0 0.00 0.00 0.00 72 1014.4
20260903112028 78 140 1.0 6.0 0.00 0.00 0.00 72 1014.4
20260903111533 78 140 1.0 6.0 0.00 0.00 0.00 72 1014.4
20260903111024 78 140 1.0 5.0 0.00 0.00 0.00 72 1014.3
20260903110524 78 140 1.0 2.0 0.00 0.00 0.00 72 1014.3
20260903110023 78 140 0.0 5.0 0.00 0.00 0.00 71 1014.3
20260903105522 78 140 0.0 5.0 0.00 0.00 0.00 71 1014.3
20260903105022 78 140 0.0 4.0 0.00 0.00 0.00 71 1014.3
20260903104522 78 140 1.0 5.0 0.00 0.00 0.00 71 1014.3
20260903104025 78 140 1.0 5.0 0.00 0.00 0.00 71 1014.4
20260903103521 78 140 0.0 6.0 0.00 0.00 0.00 71 1014.4
20260903103021 78 140 1.0 8.0 0.00 0.00 0.00 71 1014.5
20260903102520 78 134 2.0 6.0 0.00 0.00 0.00 71 1014.4
20260903102022 78 133 1.0 8.0 0.00 0.00 0.00 71 1014.4
20260903101520 78 133 2.0 8.0 0.00 0.00 0.00 71 1014.4
20260903101019 78 127 1.0 5.0 0.00 0.00 0.00 71 1014.4
20260903100520 78 127 1.0 5.0 0.00 0.00 0.00 71 1014.4
20260903100021 78 127 1.0 9.0 0.00 0.00 0.00 71 1014.4
20260903095519 78 127 2.0 9.0 0.00 0.00 0.00 71 1014.4
20260903095019 78 126 1.0 7.0 0.00 0.00 0.00 71 1014.5
20260903094522 78 126 2.0 4.0 0.00 0.00 0.00 71 1014.5
20260903094019 78 126 1.0 9.0 0.00 0.00 0.00 71 1014.5
20260903093523 78 128 2.0 9.0 0.00 0.00 0.00 71 1014.4
20260903093019 78 140 1.0 6.0 0.00 0.00 0.00 71 1014.4
20260903092523 78 142 2.0 6.0 0.00 0.00 0.00 71 1014.4
20260903092018 78 142 1.0 6.0 0.00 0.00 0.00 71 1014.4
20260903091517 78 136 1.0 6.0 0.00 0.00 0.00 71 1014.5
20260903091018 78 136 2.0 7.0 0.00 0.00 0.00 71 1014.4
20260903090517 78 136 3.0 10.0 0.00 0.00 0.00 71 1014.6
20260903090021 78 142 3.0 10.0 0.00 0.00 0.00 71 1014.6
20260903085517 78 144 2.0 6.0 0.00 0.00 0.00 71 1014.6
20260903085017 78 146 2.0 6.0 0.00 0.00 0.00 71 1014.5
20260903084516 78 122 2.0 4.0 0.00 0.00 0.00 72 1014.4
20260903084015 78 122 2.0 4.0 0.00 0.00 0.00 72 1014.5
20260903083515 78 122 0.0 4.0 0.00 0.00 0.00 72 1014.5
20260903083014 78 122 2.0 4.0 0.00 0.00 0.00 72 1014.6
20260903082516 78 122 1.0 3.0 0.00 0.00 0.00 72 1014.6
20260903082016 78 122 0.0 3.0 0.00 0.00 0.00 72 1014.6
20260903081514 78 122 1.0 3.0 0.00 0.00 0.00 72 1014.6
20260903081017 78 122 1.0 4.0 0.00 0.00 0.00 72 1014.6
20260903080514 78 122 1.0 5.0 0.00 0.00 0.00 72 1014.6
20260903080013 78 122 1.0 5.0 0.00 0.00 0.00 72 1014.7
20260903075512 78 122 2.0 7.0 0.00 0.00 0.00 72 1014.7
20260903075012 79 123 1.0 7.0 0.00 0.00 0.00 71 1014.7
20260903074512 79 123 1.0 3.0 0.00 0.00 0.00 71 1014.7
20260903074011 79 123 1.0 3.0 0.00 0.00 0.00 71 1014.7
20260903073511 79 123 1.0 3.0 0.00 0.00 0.00 71 1014.7
20260903073016 79 123 0.0 2.0 0.00 0.00 0.00 71 1014.7
20260903072509 79 123 0.0 2.0 0.00 0.00 0.00 71 1014.6
20260903072009 79 123 0.0 2.0 0.00 0.00 0.00 71 1014.7
20260903071509 79 123 0.0 3.0 0.00 0.00 0.00 71 1014.7
20260903071008 79 123 0.0 5.0 0.00 0.00 0.00 71 1014.7
20260903070507 80 123 0.0 5.0 0.00 0.00 0.00 70 1014.8
20260903070008 80 123 0.0 4.0 0.00 0.00 0.00 70 1014.8
20260903065507 80 123 1.0 7.0 0.00 0.00 0.00 70 1014.8
20260903065006 80 122 2.0 7.0 0.00 0.00 0.00 70 1014.8
20260903064506 80 124 2.0 7.0 0.00 0.00 0.00 70 1014.8
20260903064005 80 128 2.0 5.0 0.00 0.00 0.00 69 1014.8
20260903063505 80 128 1.0 4.0 0.00 0.00 0.00 69 1014.8
20260903063005 80 128 2.0 5.0 0.00 0.00 0.00 69 1014.8
20260903062503 81 128 2.0 5.0 0.00 0.00 0.00 69 1014.7
20260903062003 81 132 2.0 7.0 0.00 0.00 0.00 68 1014.8
20260903061503 81 133 2.0 7.0 0.00 0.00 0.00 68 1014.9
20260903061002 81 104 2.0 9.0 0.00 0.00 0.00 68 1014.8
20260903060501 81 96 2.0 9.0 0.00 0.00 0.00 68 1014.8
20260903060004 81 120 3.0 7.0 0.00 0.00 0.00 68 1014.9
20260903055504 81 111 3.0 7.0 0.00 0.00 0.00 67 1014.9
20260903055101 81 84 3.0 8.0 0.00 0.00 0.00 67 1015.0
20260903054600 81 114 2.0 8.0 0.00 0.00 0.00 67 1015.1
20260903054059 81 98 3.0 9.0 0.00 0.00 0.00 66 1015.0
20260903053600 81 101 3.0 9.0 0.00 0.00 0.00 66 1015.0
20260903053057 82 95 3.0 7.0 0.00 0.00 0.00 66 1015.0
20260903052557 82 109 1.0 5.0 0.00 0.00 0.00 67 1014.8
20260903052058 82 109 1.0 5.0 0.00 0.00 0.00 66 1014.9
20260903051602 82 115 1.0 4.0 0.00 0.00 0.00 66 1014.8
20260903051052 82 115 0.0 5.0 0.00 0.00 0.00 65 1014.7
20260903050552 83 115 2.0 5.0 0.00 0.00 0.00 65 1014.6
20260903050051 83 115 1.0 3.0 0.00 0.00 0.00 65 1014.6
20260903045551 83 115 0.0 3.0 0.00 0.00 0.00 65 1014.4
20260903045050 83 115 0.0 5.0 0.00 0.00 0.00 65 1014.4
20260903044550 83 115 2.0 5.0 0.00 0.00 0.00 65 1014.4
20260903044050 83 107 1.0 5.0 0.00 0.00 0.00 64 1014.3
20260903043549 83 95 2.0 8.0 0.00 0.00 0.00 64 1014.3
20260903043049 84 78 2.0 8.0 0.00 0.00 0.00 64 1014.2
20260903042549 84 104 1.0 7.0 0.00 0.00 0.00 63 1014.2
20260903042049 84 104 1.0 7.0 0.00 0.00 0.00 63 1014.2
20260903041549 84 104 1.0 6.0 0.00 0.00 0.00 62 1014.3
20260903041050 84 104 2.0 6.0 0.00 0.00 0.00 62 1014.2
20260903040548 84 105 2.0 7.0 0.00 0.00 0.00 62 1014.2
20260903040100 83 107 2.0 5.0 0.00 0.00 0.00 62 1014.2
20260903035548 83 106 2.0 7.0 0.00 0.00 0.00 61 1014.1
20260903035048 83 107 3.0 7.0 0.00 0.00 0.00 60 1014.1
20260903034548 83 138 1.0 6.0 0.00 0.00 0.00 57 1014.0
20260903034048 84 143 1.0 3.0 0.00 0.00 0.00 56 1013.9
20260903033547 84 144 0.0 3.0 0.00 0.00 0.00 56 1013.9
20260903033049 84 144 0.0 4.0 0.00 0.00 0.00 56 1013.9
20260903032550 83 144 2.0 4.0 0.00 0.00 0.00 56 1013.7
20260903032047 83 144 1.0 5.0 0.00 0.00 0.00 54 1013.7
20260903031547 83 144 2.0 5.0 0.00 0.00 0.00 54 1013.7
20260903031046 84 149 0.0 0.0 0.00 0.00 0.00 53 1013.4
20260903030546 84 149 0.0 0.0 0.00 0.00 0.00 53 1013.3
20260903030046 84 149 0.0 0.0 0.00 0.00 0.00 53 1013.2
20260903025546 84 149 0.0 0.0 0.00 0.00 0.00 53 1013.1
20260903025045 84 149 0.0 0.0 0.00 0.00 0.00 52 1013.1
20260903024546 84 149 0.0 0.0 0.00 0.00 0.00 52 1013.0
20260903024046 85 149 0.0 0.0 0.00 0.00 0.00 52 1013.0
20260903023544 85 149 0.0 0.0 0.00 0.00 0.00 51 1012.9
20260903023053 85 149 0.0 0.0 0.00 0.00 0.00 51 1012.8
20260903022545 85 149 0.0 0.0 0.00 0.00 0.00 50 1012.8
20260903022046 85 149 0.0 0.0 0.00 0.00 0.00 51 1012.8
20260903021545 85 149 0.0 0.0 0.00 0.00 0.00 50 1012.6
20260903021045 86 149 0.0 0.0 0.00 0.00 0.00 50 1012.7
20260903020544 86 149 0.0 0.0 0.00 0.00 0.00 50 1012.6
20260903020044 86 149 0.0 0.0 0.00 0.00 0.00 48 1012.5
20260903015544 86 149 0.0 0.0 0.00 0.00 0.00 48 1012.5
20260903015044 87 149 0.0 0.0 0.00 0.00 0.00 47 1012.5
20260903014554 87 149 0.0 0.0 0.00 0.00 0.00 47 1012.4
20260903014043 87 149 0.0 0.0 0.00 0.00 0.00 46 1012.3
20260903013542 88 149 0.0 2.0 0.00 0.00 0.00 47 1012.3
20260903013049 88 149 0.0 1.0 0.00 0.00 0.00 46 1012.3
20260903012542 88 149 0.0 0.0 0.00 0.00 0.00 45 1012.2
20260903012042 89 149 0.0 0.0 0.00 0.00 0.00 44 1012.2
20260903011544 89 149 0.0 0.0 0.00 0.00 0.00 44 1012.1
20260903011041 89 149 0.0 0.0 0.00 0.00 0.00 43 1012.1
20260903010544 90 149 0.0 1.0 0.00 0.00 0.00 43 1012.1
20260903010047 90 149 0.0 1.0 0.00 0.00 0.00 43 1012.2
20260903005541 90 149 0.0 1.0 0.00 0.00 0.00 41 1012.1
20260903005041 91 149 0.0 0.0 0.00 0.00 0.00 41 1012.2
20260903004542 91 149 0.0 0.0 0.00 0.00 0.00 41 1012.2
20260903004040 92 149 0.0 0.0 0.00 0.00 0.00 40 1012.2
20260903003540 92 149 0.0 0.0 0.00 0.00 0.00 40 1012.2
20260903003041 92 149 0.0 0.0 0.00 0.00 0.00 40 1012.2
20260903002539 93 149 0.0 0.0 0.00 0.00 0.00 39 1012.2
20260903002038 93 149 0.0 1.0 0.00 0.00 0.00 39 1012.2
20260903001541 93 149 0.0 1.0 0.00 0.00 0.00 38 1012.2
20260903001038 94 149 0.0 0.0 0.00 0.00 0.00 37 1012.2
20260903000538 94 149 0.0 3.0 0.00 0.00 0.00 37 1012.2
20260903000038 94 149 0.0 3.0 0.00 0.00 0.00 36 1012.2
20260902235537 94 149 0.0 3.0 0.00 0.00 0.00 36 1012.3
20260902235038 94 149 0.0 1.0 0.00 0.00 0.00 36 1012.2
20260902234551 95 149 0.0 3.0 0.00 0.00 0.00 36 1012.2
20260902234037 95 149 1.0 4.0 0.00 0.00 0.00 36 1012.3
20260902233537 95 149 1.0 4.0 0.00 0.00 0.00 35 1012.3
20260902233040 95 150 1.0 3.0 0.00 0.00 0.00 35 1012.4
20260902232536 95 150 1.0 3.0 0.00 0.00 0.00 34 1012.4
20260902232036 95 150 1.0 3.0 0.00 0.00 0.00 34 1012.4
20260902231543 95 150 1.0 3.0 0.00 0.00 0.00 34 1012.3
20260902231037 95 151 0.0 6.0 0.00 0.00 0.00 34 1012.3
20260902230537 96 157 2.0 6.0 0.00 0.00 0.00 33 1012.3
20260902230036 96 113 1.0 5.0 0.00 0.00 0.00 33 1012.3
20260902225536 96 114 2.0 5.0 0.00 0.00 0.00 33 1012.3
20260902225036 96 116 0.0 5.0 0.00 0.00 0.00 34 1012.3
20260902224541 96 116 1.0 5.0 0.00 0.00 0.00 32 1012.3
20260902224036 97 122 1.0 5.0 0.00 0.00 0.00 33 1012.3
20260902223534 97 123 1.0 7.0 0.00 0.00 0.00 32 1012.3
20260902223034 97 123 1.0 7.0 0.00 0.00 0.00 32 1012.3
20260902222535 97 123 1.0 4.0 0.00 0.00 0.00 32 1012.4
20260902222033 97 123 0.0 2.0 0.00 0.00 0.00 32 1012.4
20260902221533 97 123 0.0 5.0 0.00 0.00 0.00 32 1012.4
20260902221032 97 123 2.0 5.0 0.00 0.00 0.00 31 1012.5
20260902220532 98 128 1.0 6.0 0.00 0.00 0.00 32 1012.5
20260902220035 98 126 3.0 7.0 0.00 0.00 0.00 31 1012.5
20260902215530 98 118 0.0 4.0 0.00 0.00 0.00 32 1012.6
20260902215031 98 118 2.0 4.0 0.00 0.00 0.00 33 1012.6
20260902214530 99 118 2.0 4.0 0.00 0.00 0.00 32 1012.6
20260902214030 99 121 0.0 7.0 0.00 0.00 0.00 33 1012.7
20260902213528 99 116 2.0 7.0 0.00 0.00 0.00 33 1012.7
20260902213029 99 133 0.0 4.0 0.00 0.00 0.00 32 1012.8
20260902212529 99 134 0.0 5.0 0.00 0.00 0.00 33 1012.8
20260902212028 98 134 0.0 5.0 0.00 0.00 0.00 32 1012.8
20260902211535 99 139 0.0 3.0 0.00 0.00 0.00 31 1012.9
20260902211126 99 139 0.0 4.0 0.00 0.00 0.00 34 1012.9
20260902210526 99 139 1.0 5.0 0.00 0.00 0.00 33 1013.0
20260902210025 99 139 1.0 6.0 0.00 0.00 0.00 31 1013.1
20260902205525 100 140 1.0 6.0 0.00 0.00 0.00 32 1013.1